Aeroporto :
LOGIN :

Iscrizione | Disclaimer

   EN    FR    IT 

 










Sommario :    VFR   VFR Marginale   IFR   IFR Intensivo   IFR Molto Intensivo
Visibilità : 
Base nubi : 
>= 8 km
>= 3000ft
5 / 8 km
1000 / 3000 ft
1500m / 5 km
500 / 1000 ft
800 / 1500m
200 / 500 ft
< 800m
< 200 ft
Simboli :   Temporali  Nebbia  Neve Forte  Precipitazioni Forti  Vento > 20 kt
SIGMETs :   Varie  Temporali  Ghiacco  Turbolenza  Onda orograficha  Ceneri Vulcaniche







- Altitudine del aeroporto : 779 ft
- Codice IATA : CMF
- Carte del aeroporto


LFLB - Chambery / Aix-Les-Bains

ULTIMO METAR :
  • 181400Z AUTO 35005KT CAVOK 28/17 Q1017 NOSIG

METARs OBSOLETI :
  • 181330Z AUTO 36004KT 330V030 CAVOK 28/16 Q1017 NOSIG
  • 181300Z AUTO 35005KT 310V020 CAVOK 28/16 Q1017 NOSIG
  • 181230Z AUTO 34006KT 300V360 CAVOK 27/16 Q1017 NOSIG
  • 181200Z AUTO 36007KT CAVOK 26/16 Q1018 NOSIG
  • 181130Z AUTO 35006KT CAVOK 26/16 Q1018 NOSIG

TAF TAF LFLB
Valido dal 18 a 12 ore il 19 a 12 ore UTC


181100Z 1812/1912 VRB03KT CAVOK
TEMPO 1812/1816 34005KT
TEMPO 1910/1912 34006KT
Nessun NOTAM noto per questo aeroporto.



MetMap, La meteo Aeronautica in un colpo d'occhio ! - Copyright ORBIFLY Dicembre 2007 - Disclaimer

ORBIFLY MET'MAP TEAM :

Programmazione e sviluppo : Alexandra Zaïnal
Concezione e sviluppo : Baudouin d'Aumeries
Co-Programmazione e sviluppo : Marc-Olivier Méhu
Supporto tecnico e logistico : Manuel Goepfert
Aiuto per la traduzione : Arnaldo La Scala

Contatto : metmap@orbifly.com




FONTI E CREDITI :

   NOAA